contact:dominique.lefevre@mio.osupytheas.fr, maurice.libes@osupytheas.fr, didier.mallarino@osupytheas.fr
Project:EMSO http://www.emso-fr.org/EMSO-France
Depth: 2436.0 m
Title:EMSO Ligure Ouest : Data MII capteur MICROCAT
DateTime_Computer,Latitude,Longitude,Temperature,Conductivity,Pressure,DateTime_Instrument
DateTime_Computer,Latitude,Longitude,degC,S m-1,dbar,DateTime_Instrument
2021-04-24T00:01:39Z,42.805,6.029,13.2982,4.59986,2469.993,2021-4-24T02:02:48Z
2021-04-24T00:04:42Z,42.805,6.029,13.2975,4.59986,2469.993,2021-4-24T02:05:52Z
2021-04-24T00:07:45Z,42.805,6.029,13.2982,4.59986,2469.97,2021-4-24T02:08:55Z
2021-04-24T00:10:48Z,42.805,6.029,13.2980,4.59987,2469.97,2021-4-24T02:11:58Z
2021-04-24T00:13:52Z,42.805,6.029,13.2985,4.59986,2469.97,2021-4-24T02:15:01Z
2021-04-24T00:16:55Z,42.805,6.029,13.2980,4.59988,2469.947,2021-4-24T02:18:04Z
2021-04-24T00:19:58Z,42.805,6.029,13.2978,4.59986,2469.947,2021-4-24T02:21:07Z
2021-04-24T00:23:01Z,42.805,6.029,13.2979,4.59985,2469.993,2021-4-24T02:24:10Z
2021-04-24T00:26:04Z,42.805,6.029,13.2978,4.59988,2469.96,2021-4-24T02:27:13Z
2021-04-24T00:29:07Z,42.805,6.029,13.2977,4.59984,2469.984,2021-4-24T02:30:17Z
2021-04-24T00:32:10Z,42.805,6.029,13.2982,4.59985,2469.984,2021-4-24T02:33:20Z
2021-04-24T00:35:13Z,42.805,6.029,13.2976,4.59986,2469.96,2021-4-24T02:36:23Z
2021-04-24T00:38:17Z,42.805,6.029,13.2980,4.59984,2469.923,2021-4-24T02:39:26Z
2021-04-24T00:41:20Z,42.805,6.029,13.2984,4.59987,2469.947,2021-4-24T02:42:29Z
2021-04-24T00:44:23Z,42.805,6.029,13.2977,4.59985,2469.947,2021-4-24T02:45:32Z
2021-04-24T00:47:26Z,42.805,6.029,13.2979,4.59986,2469.984,2021-4-24T02:48:35Z
2021-04-24T00:50:29Z,42.805,6.029,13.2977,4.59986,2469.97,2021-4-24T02:51:38Z
2021-04-24T00:53:32Z,42.805,6.029,13.2980,4.59989,2469.947,2021-4-24T02:54:42Z
2021-04-24T00:56:35Z,42.805,6.029,13.2981,4.59986,2469.97,2021-4-24T02:57:45Z
2021-04-24T00:59:38Z,42.805,6.029,13.2983,4.59987,2469.947,2021-4-24T03:00:48Z
2021-04-24T01:02:42Z,42.805,6.029,13.2980,4.59986,2469.909,2021-4-24T03:03:51Z
2021-04-24T01:05:45Z,42.805,6.029,13.2982,4.59992,2469.984,2021-4-24T03:06:54Z
2021-04-24T01:08:48Z,42.805,6.029,13.2981,4.59988,2469.97,2021-4-24T03:09:57Z
2021-04-24T01:11:51Z,42.805,6.029,13.2980,4.59986,2469.96,2021-4-24T03:13:00Z
2021-04-24T01:14:54Z,42.805,6.029,13.2979,4.59988,2469.947,2021-4-24T03:16:03Z
2021-04-24T01:17:57Z,42.805,6.029,13.2982,4.59987,2469.984,2021-4-24T03:19:07Z
2021-04-24T01:21:00Z,42.805,6.029,13.2980,4.59986,2469.947,2021-4-24T03:22:10Z
2021-04-24T01:24:03Z,42.805,6.029,13.2980,4.59988,2469.9,2021-4-24T03:25:13Z
2021-04-24T01:27:07Z,42.805,6.029,13.2981,4.59988,2469.947,2021-4-24T03:28:16Z
2021-04-24T01:30:10Z,42.805,6.029,13.2982,4.59988,2469.97,2021-4-24T03:31:19Z
2021-04-24T01:33:13Z,42.805,6.029,13.2982,4.59988,2469.97,2021-4-24T03:34:22Z
2021-04-24T01:36:16Z,42.805,6.029,13.2978,4.59986,2469.984,2021-4-24T03:37:25Z
2021-04-24T01:39:19Z,42.805,6.029,13.2982,4.59986,2469.979,2021-4-24T03:40:28Z
2021-04-24T01:42:22Z,42.805,6.029,13.2980,4.59987,2469.993,2021-4-24T03:43:32Z
2021-04-24T01:45:25Z,42.805,6.029,13.2982,4.59989,2469.97,2021-4-24T03:46:35Z
2021-04-24T01:48:28Z,42.805,6.029,13.2982,4.59987,2469.947,2021-4-24T03:49:38Z
2021-04-24T01:51:32Z,42.805,6.029,13.2981,4.59992,2469.923,2021-4-24T03:52:41Z
2021-04-24T01:54:35Z,42.805,6.029,13.2979,4.59991,2469.947,2021-4-24T03:55:44Z
2021-04-24T01:57:38Z,42.805,6.029,13.2982,4.59986,2469.96,2021-4-24T03:58:47Z
2021-04-24T02:00:41Z,42.805,6.029,13.2980,4.59986,2469.947,2021-4-24T04:01:50Z
2021-04-24T02:03:44Z,42.805,6.029,13.2979,4.59991,2469.947,2021-4-24T04:04:53Z
2021-04-24T02:06:47Z,42.805,6.029,13.2978,4.59986,2469.947,2021-4-24T04:07:57Z
2021-04-24T02:09:50Z,42.805,6.029,13.2983,4.59985,2469.984,2021-4-24T04:11:00Z
2021-04-24T02:12:53Z,42.805,6.029,13.2980,4.59989,2469.97,2021-4-24T04:14:03Z
2021-04-24T02:15:57Z,42.805,6.029,13.2980,4.59988,2469.947,2021-4-24T04:17:06Z
2021-04-24T02:19:00Z,42.805,6.029,13.2980,4.59986,2469.947,2021-4-24T04:20:09Z
2021-04-24T02:22:03Z,42.805,6.029,13.2978,4.59987,2469.984,2021-4-24T04:23:12Z
2021-04-24T02:25:06Z,42.805,6.029,13.2982,4.59986,2469.993,2021-4-24T04:26:15Z
2021-04-24T02:28:09Z,42.805,6.029,13.2979,4.59985,2470.007,2021-4-24T04:29:18Z
2021-04-24T02:31:12Z,42.805,6.029,13.2983,4.59986,2469.97,2021-4-24T04:32:22Z
2021-04-24T02:34:15Z,42.805,6.029,13.2979,4.59989,2469.984,2021-4-24T04:35:25Z
2021-04-24T02:37:18Z,42.805,6.029,13.2980,4.59991,2469.993,2021-4-24T04:38:28Z
2021-04-24T02:40:22Z,42.805,6.029,13.2979,4.59990,2469.97,2021-4-24T04:41:31Z
2021-04-24T02:43:25Z,42.805,6.029,13.2981,4.59988,2469.993,2021-4-24T04:44:34Z
2021-04-24T02:46:28Z,42.805,6.029,13.2983,4.59988,2469.97,2021-4-24T04:47:37Z
2021-04-24T02:49:31Z,42.805,6.029,13.2981,4.59986,2470.007,2021-4-24T04:50:40Z
2021-04-24T02:52:34Z,42.805,6.029,13.2980,4.59989,2470.003,2021-4-24T04:53:43Z
2021-04-24T02:55:37Z,42.805,6.029,13.2978,4.59986,2469.993,2021-4-24T04:56:46Z
2021-04-24T02:58:40Z,42.805,6.029,13.2981,4.59986,2470.017,2021-4-24T04:59:50Z
2021-04-24T03:01:43Z,42.805,6.029,13.2979,4.59990,2469.993,2021-4-24T05:02:53Z
2021-04-24T03:04:47Z,42.805,6.029,13.2981,4.59988,2469.993,2021-4-24T05:05:56Z
2021-04-24T03:07:50Z,42.805,6.029,13.2979,4.59991,2469.993,2021-4-24T05:08:59Z
2021-04-24T03:10:53Z,42.805,6.029,13.2979,4.59991,2469.97,2021-4-24T05:12:02Z
2021-04-24T03:13:56Z,42.805,6.029,13.2980,4.59991,2470.03,2021-4-24T05:15:05Z
2021-04-24T03:16:59Z,42.805,6.029,13.2981,4.59987,2469.984,2021-4-24T05:18:08Z
2021-04-24T03:20:02Z,42.805,6.029,13.2976,4.59989,2469.97,2021-4-24T05:21:11Z
2021-04-24T03:23:05Z,42.805,6.029,13.2982,4.59990,2469.984,2021-4-24T05:24:15Z
2021-04-24T03:26:08Z,42.805,6.029,13.2979,4.59996,2469.993,2021-4-24T05:27:18Z
2021-04-24T03:29:12Z,42.805,6.029,13.2978,4.59991,2469.97,2021-4-24T05:30:21Z
2021-04-24T03:32:15Z,42.805,6.029,13.2981,4.59991,2469.993,2021-4-24T05:33:24Z
2021-04-24T03:35:18Z,42.805,6.029,13.2979,4.59987,2470.03,2021-4-24T05:36:27Z
2021-04-24T03:38:21Z,42.805,6.029,13.2981,4.59990,2470.017,2021-4-24T05:39:30Z
2021-04-24T03:41:24Z,42.805,6.029,13.2976,4.59986,2469.993,2021-4-24T05:42:33Z
2021-04-24T03:44:27Z,42.805,6.029,13.2981,4.59986,2470.017,2021-4-24T05:45:36Z
2021-04-24T03:47:30Z,42.805,6.029,13.2976,4.59989,2470.017,2021-4-24T05:48:40Z
2021-04-24T03:50:33Z,42.805,6.029,13.2981,4.59994,2470.017,2021-4-24T05:51:43Z
2021-04-24T03:53:37Z,42.805,6.029,13.2979,4.59991,2469.993,2021-4-24T05:54:46Z
2021-04-24T03:56:40Z,42.805,6.029,13.2982,4.59989,2470.017,2021-4-24T05:57:49Z
2021-04-24T03:59:43Z,42.805,6.029,13.2982,4.59988,2470.017,2021-4-24T06:00:52Z
2021-04-24T04:02:46Z,42.805,6.029,13.2985,4.59991,2469.979,2021-4-24T06:03:55Z
2021-04-24T04:05:49Z,42.805,6.029,13.2981,4.59988,2470.04,2021-4-24T06:06:58Z
2021-04-24T04:08:52Z,42.805,6.029,13.2979,4.59988,2470.007,2021-4-24T06:10:01Z
2021-04-24T04:11:55Z,42.805,6.029,13.2976,4.59988,2470.053,2021-4-24T06:13:05Z
2021-04-24T04:14:58Z,42.805,6.029,13.2979,4.59988,2470.007,2021-4-24T06:16:08Z
2021-04-24T04:18:01Z,42.805,6.029,13.2979,4.59992,2470.007,2021-4-24T06:19:11Z
2021-04-24T04:21:05Z,42.805,6.029,13.2982,4.59990,2469.993,2021-4-24T06:22:14Z
2021-04-24T04:24:08Z,42.805,6.029,13.2978,4.59988,2470.017,2021-4-24T06:25:17Z
2021-04-24T04:27:11Z,42.805,6.029,13.2977,4.59994,2470.017,2021-4-24T06:28:20Z
2021-04-24T04:30:14Z,42.805,6.029,13.2979,4.59993,2470.003,2021-4-24T06:31:23Z
2021-04-24T04:33:17Z,42.805,6.029,13.2978,4.59988,2470.053,2021-4-24T06:34:26Z
2021-04-24T04:36:20Z,42.805,6.029,13.2981,4.59991,2470.053,2021-4-24T06:37:29Z
2021-04-24T04:39:23Z,42.805,6.029,13.2979,4.59992,2470.017,2021-4-24T06:40:33Z
2021-04-24T04:42:26Z,42.805,6.029,13.2982,4.59990,2470.04,2021-4-24T06:43:36Z
2021-04-24T04:45:30Z,42.805,6.029,13.2979,4.59988,2470.053,2021-4-24T06:46:39Z
2021-04-24T04:48:33Z,42.805,6.029,13.2982,4.59988,2470.04,2021-4-24T06:49:42Z
2021-04-24T04:51:36Z,42.805,6.029,13.2976,4.59989,2469.993,2021-4-24T06:52:45Z
2021-04-24T04:54:39Z,42.805,6.029,13.2979,4.59992,2470.017,2021-4-24T06:55:48Z
2021-04-24T04:57:42Z,42.805,6.029,13.2981,4.59988,2470.03,2021-4-24T06:58:51Z
2021-04-24T05:00:45Z,42.805,6.029,13.2982,4.59988,2470.017,2021-4-24T07:01:55Z
2021-04-24T05:03:48Z,42.805,6.029,13.2986,4.59991,2470.063,2021-4-24T07:04:58Z
2021-04-24T05:06:51Z,42.805,6.029,13.2979,4.59988,2470.053,2021-4-24T07:08:01Z
2021-04-24T05:09:55Z,42.805,6.029,13.2978,4.59992,2470.017,2021-4-24T07:11:04Z
2021-04-24T05:12:58Z,42.805,6.029,13.2980,4.59991,2470.03,2021-4-24T07:14:07Z
2021-04-24T05:16:01Z,42.805,6.029,13.2979,4.59993,2470.017,2021-4-24T07:17:10Z
2021-04-24T05:19:04Z,42.805,6.029,13.2979,4.59989,2470.017,2021-4-24T07:20:13Z
2021-04-24T05:22:07Z,42.805,6.029,13.2977,4.59989,2470.007,2021-4-24T07:23:16Z
2021-04-24T05:25:10Z,42.805,6.029,13.2982,4.59988,2470.017,2021-4-24T07:26:19Z
2021-04-24T05:28:13Z,42.805,6.029,13.2980,4.59991,2470.007,2021-4-24T07:29:23Z
2021-04-24T05:31:16Z,42.805,6.029,13.2979,4.59991,2470.017,2021-4-24T07:32:26Z
2021-04-24T05:34:20Z,42.805,6.029,13.2979,4.59989,2470.053,2021-4-24T07:35:29Z
2021-04-24T05:37:23Z,42.805,6.029,13.2982,4.59992,2469.993,2021-4-24T07:38:32Z
2021-04-24T05:40:26Z,42.805,6.029,13.2981,4.59991,2470.017,2021-4-24T07:41:35Z
2021-04-24T05:43:29Z,42.805,6.029,13.2980,4.59988,2469.993,2021-4-24T07:44:38Z
2021-04-24T05:46:32Z,42.805,6.029,13.2980,4.59989,2470.017,2021-4-24T07:47:41Z
2021-04-24T05:49:35Z,42.805,6.029,13.2983,4.59988,2470.017,2021-4-24T07:50:44Z
2021-04-24T05:52:38Z,42.805,6.029,13.2980,4.59990,2469.993,2021-4-24T07:53:48Z
2021-04-24T05:55:41Z,42.805,6.029,13.2981,4.59990,2470.007,2021-4-24T07:56:51Z
2021-04-24T05:58:45Z,42.805,6.029,13.2980,4.59988,2470.017,2021-4-24T07:59:54Z
2021-04-24T06:01:48Z,42.805,6.029,13.2982,4.59988,2469.97,2021-4-24T08:02:57Z
2021-04-24T06:04:51Z,42.805,6.029,13.2979,4.59991,2469.97,2021-4-24T08:06:00Z
2021-04-24T06:07:54Z,42.805,6.029,13.2981,4.59989,2469.993,2021-4-24T08:09:03Z
2021-04-24T06:10:57Z,42.805,6.029,13.2978,4.59991,2469.97,2021-4-24T08:12:06Z
2021-04-24T06:14:00Z,42.805,6.029,13.2976,4.59991,2469.984,2021-4-24T08:15:09Z
2021-04-24T06:17:03Z,42.805,6.029,13.2977,4.59989,2469.993,2021-4-24T08:18:13Z
2021-04-24T06:20:06Z,42.805,6.029,13.2981,4.59991,2469.984,2021-4-24T08:21:16Z
2021-04-24T06:23:09Z,42.805,6.029,13.2982,4.59991,2470.007,2021-4-24T08:24:19Z
2021-04-24T06:26:13Z,42.805,6.029,13.2976,4.59988,2469.984,2021-4-24T08:27:22Z
2021-04-24T06:29:16Z,42.805,6.029,13.2979,4.59988,2469.97,2021-4-24T08:30:25Z
2021-04-24T06:32:19Z,42.805,6.029,13.2981,4.59991,2469.97,2021-4-24T08:33:28Z
2021-04-24T06:35:22Z,42.805,6.029,13.2983,4.59988,2470.017,2021-4-24T08:36:31Z
2021-04-24T06:38:25Z,42.805,6.029,13.2979,4.59992,2469.984,2021-4-24T08:39:34Z
2021-04-24T06:41:28Z,42.805,6.029,13.2983,4.59989,2469.984,2021-4-24T08:42:38Z
2021-04-24T06:44:31Z,42.805,6.029,13.2981,4.59988,2469.956,2021-4-24T08:45:41Z
2021-04-24T06:47:35Z,42.805,6.029,13.2976,4.59988,2469.947,2021-4-24T08:48:44Z
2021-04-24T06:50:38Z,42.805,6.029,13.2979,4.59988,2469.947,2021-4-24T08:51:47Z
2021-04-24T06:53:41Z,42.805,6.029,13.2981,4.59987,2470.007,2021-4-24T08:54:50Z
2021-04-24T06:56:44Z,42.805,6.029,13.2980,4.59990,2469.947,2021-4-24T08:57:53Z
2021-04-24T06:59:47Z,42.805,6.029,13.2980,4.59988,2469.96,2021-4-24T09:00:56Z
2021-04-24T07:02:50Z,42.805,6.029,13.2981,4.59989,2469.97,2021-4-24T09:03:59Z
2021-04-24T07:05:53Z,42.805,6.029,13.2980,4.59993,2469.947,2021-4-24T09:07:03Z
2021-04-24T07:08:56Z,42.805,6.029,13.2977,4.59992,2469.947,2021-4-24T09:10:06Z
2021-04-24T07:11:59Z,42.805,6.029,13.2980,4.59991,2469.947,2021-4-24T09:13:09Z
2021-04-24T07:15:03Z,42.805,6.029,13.2979,4.59992,2469.937,2021-4-24T09:16:12Z
2021-04-24T07:18:06Z,42.805,6.029,13.2983,4.59991,2469.979,2021-4-24T09:19:15Z
2021-04-24T07:21:09Z,42.805,6.029,13.2979,4.59990,2469.947,2021-4-24T09:22:18Z
2021-04-24T07:24:12Z,42.805,6.029,13.2982,4.59992,2469.937,2021-4-24T09:25:21Z
2021-04-24T07:27:15Z,42.805,6.029,13.2979,4.59992,2469.984,2021-4-24T09:28:24Z
2021-04-24T07:30:18Z,42.805,6.029,13.2982,4.59992,2469.923,2021-4-24T09:31:28Z
2021-04-24T07:33:21Z,42.805,6.029,13.2982,4.59990,2469.886,2021-4-24T09:34:31Z
2021-04-24T07:36:24Z,42.805,6.029,13.2982,4.59990,2469.923,2021-4-24T09:37:34Z
2021-04-24T07:39:28Z,42.805,6.029,13.2979,4.59991,2469.9,2021-4-24T09:40:37Z
2021-04-24T07:42:31Z,42.805,6.029,13.2984,4.59991,2469.914,2021-4-24T09:43:40Z
2021-04-24T07:45:34Z,42.805,6.029,13.2982,4.59991,2469.947,2021-4-24T09:46:43Z
2021-04-24T07:48:37Z,42.805,6.029,13.2981,4.59991,2469.9,2021-4-24T09:49:46Z
2021-04-24T07:51:40Z,42.805,6.029,13.2982,4.59992,2469.937,2021-4-24T09:52:49Z
2021-04-24T07:54:43Z,42.805,6.029,13.2983,4.59993,2469.923,2021-4-24T09:55:53Z
2021-04-24T07:57:46Z,42.805,6.029,13.2984,4.59991,2469.867,2021-4-24T09:58:56Z
2021-04-24T08:00:49Z,42.805,6.029,13.2979,4.59991,2469.9,2021-4-24T10:01:59Z
2021-04-24T08:03:53Z,42.805,6.029,13.2982,4.59992,2469.9,2021-4-24T10:05:02Z
2021-04-24T08:06:56Z,42.805,6.029,13.2983,4.59997,2469.89,2021-4-24T10:08:05Z
2021-04-24T08:09:59Z,42.805,6.029,13.2980,4.59994,2469.9,2021-4-24T10:11:08Z
2021-04-24T08:13:02Z,42.805,6.029,13.2983,4.59991,2469.914,2021-4-24T10:14:11Z
2021-04-24T08:16:05Z,42.805,6.029,13.2981,4.59996,2469.867,2021-4-24T10:17:14Z
2021-04-24T08:19:08Z,42.805,6.029,13.2983,4.59989,2469.876,2021-4-24T10:20:18Z
2021-04-24T08:22:11Z,42.805,6.029,13.2981,4.59991,2469.9,2021-4-24T10:23:21Z
2021-04-24T08:25:14Z,42.805,6.029,13.2982,4.59990,2469.867,2021-4-24T10:26:24Z
2021-04-24T08:28:18Z,42.805,6.029,13.2979,4.59988,2469.867,2021-4-24T10:29:27Z
2021-04-24T08:31:21Z,42.805,6.029,13.2982,4.59990,2469.853,2021-4-24T10:32:30Z
2021-04-24T08:34:24Z,42.805,6.029,13.2978,4.59988,2469.904,2021-4-24T10:35:33Z
2021-04-24T08:37:27Z,42.805,6.029,13.2979,4.59988,2469.914,2021-4-24T10:38:36Z
2021-04-24T08:40:30Z,42.805,6.029,13.2982,4.59990,2469.876,2021-4-24T10:41:39Z
2021-04-24T08:43:33Z,42.805,6.029,13.2979,4.59990,2469.844,2021-4-24T10:44:43Z
2021-04-24T08:46:36Z,42.805,6.029,13.2981,4.59990,2469.853,2021-4-24T10:47:46Z
2021-04-24T08:49:39Z,42.805,6.029,13.2987,4.59989,2469.867,2021-4-24T10:50:49Z
2021-04-24T08:52:43Z,42.805,6.029,13.2982,4.59988,2469.844,2021-4-24T10:53:52Z
2021-04-24T08:55:46Z,42.805,6.029,13.2984,4.59987,2469.806,2021-4-24T10:56:55Z
2021-04-24T08:58:49Z,42.805,6.029,13.2980,4.59989,2469.816,2021-4-24T10:59:58Z
2021-04-24T09:01:52Z,42.805,6.029,13.2982,4.59988,2469.83,2021-4-24T11:03:01Z
2021-04-24T09:04:55Z,42.805,6.029,13.2983,4.59989,2469.806,2021-4-24T11:06:04Z
2021-04-24T09:07:58Z,42.805,6.029,13.2983,4.59989,2469.821,2021-4-24T11:09:08Z
2021-04-24T09:11:01Z,42.805,6.029,13.2981,4.59990,2469.806,2021-4-24T11:12:11Z
2021-04-24T09:14:05Z,42.805,6.029,13.2986,4.59989,2469.853,2021-4-24T11:15:14Z
2021-04-24T09:17:08Z,42.805,6.029,13.2983,4.59988,2469.783,2021-4-24T11:18:17Z
2021-04-24T09:20:11Z,42.805,6.029,13.2979,4.59988,2469.783,2021-4-24T11:21:20Z
2021-04-24T09:23:14Z,42.805,6.029,13.2982,4.59993,2469.797,2021-4-24T11:24:23Z
2021-04-24T09:26:17Z,42.805,6.029,13.2983,4.59990,2469.806,2021-4-24T11:27:26Z
2021-04-24T09:29:20Z,42.805,6.029,13.2983,4.59988,2469.83,2021-4-24T11:30:29Z
2021-04-24T09:32:23Z,42.805,6.029,13.2984,4.59990,2469.76,2021-4-24T11:33:33Z
2021-04-24T09:35:26Z,42.805,6.029,13.2983,4.59989,2469.783,2021-4-24T11:36:36Z
2021-04-24T09:38:30Z,42.805,6.029,13.2982,4.59988,2469.783,2021-4-24T11:39:39Z
2021-04-24T09:41:33Z,42.805,6.029,13.2982,4.59990,2469.806,2021-4-24T11:42:42Z
2021-04-24T09:44:36Z,42.805,6.029,13.2983,4.59990,2469.821,2021-4-24T11:45:45Z
2021-04-24T09:47:39Z,42.805,6.029,13.2979,4.59987,2469.783,2021-4-24T11:48:48Z
2021-04-24T09:50:42Z,42.805,6.029,13.2982,4.59987,2469.783,2021-4-24T11:51:51Z
2021-04-24T09:53:45Z,42.805,6.029,13.2979,4.59987,2469.76,2021-4-24T11:54:54Z
2021-04-24T09:56:48Z,42.805,6.029,13.2979,4.59988,2469.737,2021-4-24T11:57:58Z
2021-04-24T09:59:51Z,42.805,6.029,13.2982,4.59988,2469.699,2021-4-24T12:01:01Z
2021-04-24T10:02:55Z,42.805,6.029,13.2982,4.59990,2469.737,2021-4-24T12:04:04Z
2021-04-24T10:05:58Z,42.805,6.029,13.2978,4.59988,2469.75,2021-4-24T12:07:07Z
2021-04-24T10:09:01Z,42.805,6.029,13.2981,4.59988,2469.737,2021-4-24T12:10:10Z
2021-04-24T10:12:04Z,42.805,6.029,13.2980,4.59988,2469.737,2021-4-24T12:13:13Z
2021-04-24T10:15:07Z,42.805,6.029,13.2982,4.59991,2469.76,2021-4-24T12:16:16Z
2021-04-24T10:18:10Z,42.805,6.029,13.2982,4.59988,2469.773,2021-4-24T12:19:19Z
2021-04-24T10:21:13Z,42.805,6.029,13.2981,4.59987,2469.75,2021-4-24T12:22:23Z
2021-04-24T10:24:16Z,42.805,6.029,13.2980,4.59986,2469.737,2021-4-24T12:25:26Z
2021-04-24T10:27:20Z,42.805,6.029,13.2983,4.59988,2469.713,2021-4-24T12:28:29Z
2021-04-24T10:30:23Z,42.805,6.029,13.2979,4.59989,2469.727,2021-4-24T12:31:32Z
2021-04-24T10:33:26Z,42.805,6.029,13.2981,4.59988,2469.713,2021-4-24T12:34:35Z
2021-04-24T10:36:29Z,42.805,6.029,13.2983,4.59991,2469.676,2021-4-24T12:37:38Z
2021-04-24T10:39:32Z,42.805,6.029,13.2984,4.59989,2469.713,2021-4-24T12:40:41Z
2021-04-24T10:42:35Z,42.805,6.029,13.2982,4.59991,2469.713,2021-4-24T12:43:44Z
2021-04-24T10:45:38Z,42.805,6.029,13.2982,4.59988,2469.713,2021-4-24T12:46:48Z
2021-04-24T10:48:41Z,42.805,6.029,13.2981,4.59988,2469.704,2021-4-24T12:49:51Z
2021-04-24T10:51:45Z,42.805,6.029,13.2983,4.59989,2469.713,2021-4-24T12:52:54Z
2021-04-24T10:54:48Z,42.805,6.029,13.2981,4.59987,2469.713,2021-4-24T12:55:57Z
2021-04-24T10:57:51Z,42.805,6.029,13.2983,4.59993,2469.69,2021-4-24T12:59:00Z
2021-04-24T11:00:54Z,42.805,6.029,13.2985,4.59988,2469.667,2021-4-24T13:02:03Z
2021-04-24T11:03:57Z,42.805,6.029,13.2981,4.59989,2469.69,2021-4-24T13:05:06Z
2021-04-24T11:07:00Z,42.805,6.029,13.2981,4.59988,2469.69,2021-4-24T13:08:10Z
2021-04-24T11:10:03Z,42.805,6.029,13.2982,4.59988,2469.69,2021-4-24T13:11:13Z
2021-04-24T11:13:06Z,42.805,6.029,13.2981,4.59991,2469.713,2021-4-24T13:14:16Z
2021-04-24T11:16:10Z,42.805,6.029,13.2976,4.59995,2469.69,2021-4-24T13:17:19Z
2021-04-24T11:19:13Z,42.805,6.029,13.2982,4.59991,2469.667,2021-4-24T13:20:22Z
2021-04-24T11:22:16Z,42.805,6.029,13.2982,4.59991,2469.667,2021-4-24T13:23:25Z
2021-04-24T11:25:19Z,42.805,6.029,13.2982,4.59988,2469.68,2021-4-24T13:26:28Z
2021-04-24T11:28:22Z,42.805,6.029,13.2988,4.59988,2469.69,2021-4-24T13:29:31Z
2021-04-24T11:31:25Z,42.805,6.029,13.2985,4.59990,2469.643,2021-4-24T13:32:35Z
2021-04-24T11:34:28Z,42.805,6.029,13.2981,4.59988,2469.667,2021-4-24T13:35:38Z
2021-04-24T11:37:32Z,42.805,6.029,13.2980,4.59990,2469.69,2021-4-24T13:38:41Z
2021-04-24T11:40:35Z,42.805,6.029,13.2981,4.59987,2469.68,2021-4-24T13:41:44Z
2021-04-24T11:43:38Z,42.805,6.029,13.2983,4.59986,2469.667,2021-4-24T13:44:47Z
2021-04-24T11:46:41Z,42.805,6.029,13.2979,4.59988,2469.68,2021-4-24T13:47:50Z
2021-04-24T11:49:44Z,42.805,6.029,13.2979,4.59987,2469.69,2021-4-24T13:50:53Z
2021-04-24T11:52:47Z,42.805,6.029,13.2981,4.59987,2469.643,2021-4-24T13:53:57Z
2021-04-24T11:55:50Z,42.805,6.029,13.2983,4.59988,2469.667,2021-4-24T13:57:00Z
2021-04-24T11:58:53Z,42.805,6.029,13.2982,4.59989,2469.68,2021-4-24T14:00:03Z
2021-04-24T12:01:57Z,42.805,6.029,13.2984,4.59987,2469.68,2021-4-24T14:03:06Z
2021-04-24T12:05:00Z,42.805,6.029,13.2977,4.59988,2469.68,2021-4-24T14:06:09Z
2021-04-24T12:08:03Z,42.805,6.029,13.2981,4.59989,2469.62,2021-4-24T14:09:12Z
2021-04-24T12:11:06Z,42.805,6.029,13.2985,4.59986,2469.657,2021-4-24T14:12:15Z
2021-04-24T12:14:09Z,42.805,6.029,13.2983,4.59988,2469.643,2021-4-24T14:15:18Z
2021-04-24T12:17:12Z,42.805,6.029,13.2982,4.59989,2469.62,2021-4-24T14:18:21Z
2021-04-24T12:20:15Z,42.805,6.029,13.2984,4.59987,2469.634,2021-4-24T14:21:25Z
2021-04-24T12:23:18Z,42.805,6.029,13.2979,4.59988,2469.643,2021-4-24T14:24:28Z
2021-04-24T12:26:22Z,42.805,6.029,13.2979,4.59987,2469.667,2021-4-24T14:27:31Z
2021-04-24T12:29:25Z,42.805,6.029,13.2981,4.59985,2469.657,2021-4-24T14:30:34Z
2021-04-24T12:32:28Z,42.805,6.029,13.2979,4.59986,2469.667,2021-4-24T14:33:37Z
2021-04-24T12:35:31Z,42.805,6.029,13.2980,4.59987,2469.643,2021-4-24T14:36:40Z
2021-04-24T12:38:34Z,42.805,6.029,13.2982,4.59987,2469.643,2021-4-24T14:39:43Z
2021-04-24T12:41:37Z,42.805,6.029,13.2979,4.59986,2469.643,2021-4-24T14:42:47Z
2021-04-24T12:44:40Z,42.805,6.029,13.2980,4.59986,2469.68,2021-4-24T14:45:50Z
2021-04-24T12:47:43Z,42.805,6.029,13.2982,4.59985,2469.68,2021-4-24T14:48:53Z
2021-04-24T12:50:47Z,42.805,6.029,13.2982,4.59987,2469.667,2021-4-24T14:51:56Z
2021-04-24T12:53:50Z,42.805,6.029,13.2985,4.59986,2469.657,2021-4-24T14:54:59Z
2021-04-24T12:56:53Z,42.805,6.029,13.2979,4.59984,2469.657,2021-4-24T14:58:02Z
2021-04-24T12:59:56Z,42.805,6.029,13.2979,4.59985,2469.643,2021-4-24T15:01:05Z
2021-04-24T13:02:59Z,42.805,6.029,13.2978,4.59986,2469.667,2021-4-24T15:04:08Z
2021-04-24T13:06:02Z,42.805,6.029,13.2980,4.59988,2469.62,2021-4-24T15:07:12Z
2021-04-24T13:09:05Z,42.805,6.029,13.2984,4.59987,2469.68,2021-4-24T15:10:15Z
2021-04-24T13:12:08Z,42.805,6.029,13.2982,4.59986,2469.667,2021-4-24T15:13:18Z
2021-04-24T13:15:12Z,42.805,6.029,13.2983,4.59986,2469.667,2021-4-24T15:16:21Z
2021-04-24T13:18:15Z,42.805,6.029,13.2979,4.59986,2469.643,2021-4-24T15:19:24Z
2021-04-24T13:21:18Z,42.805,6.029,13.2979,4.59986,2469.667,2021-4-24T15:22:27Z
2021-04-24T13:24:21Z,42.805,6.029,13.2981,4.59989,2469.643,2021-4-24T15:25:30Z
2021-04-24T13:27:24Z,42.805,6.029,13.2982,4.59988,2469.62,2021-4-24T15:28:33Z
2021-04-24T13:30:27Z,42.805,6.029,13.2982,4.59989,2469.634,2021-4-24T15:31:37Z
2021-04-24T13:33:30Z,42.805,6.029,13.2984,4.59986,2469.62,2021-4-24T15:34:40Z
2021-04-24T13:36:34Z,42.805,6.029,13.2979,4.59986,2469.634,2021-4-24T15:37:43Z
2021-04-24T13:39:37Z,42.805,6.029,13.2979,4.59986,2469.643,2021-4-24T15:40:46Z
2021-04-24T13:42:40Z,42.805,6.029,13.2980,4.59986,2469.62,2021-4-24T15:43:49Z
2021-04-24T13:45:43Z,42.805,6.029,13.2982,4.59988,2469.62,2021-4-24T15:46:52Z
2021-04-24T13:48:46Z,42.805,6.029,13.2978,4.59987,2469.634,2021-4-24T15:49:55Z
2021-04-24T13:51:49Z,42.805,6.029,13.2982,4.59986,2469.643,2021-4-24T15:52:59Z
2021-04-24T13:54:52Z,42.805,6.029,13.2979,4.59987,2469.634,2021-4-24T15:56:02Z
2021-04-24T13:57:55Z,42.805,6.029,13.2982,4.59988,2469.634,2021-4-24T15:59:05Z
2021-04-24T14:00:59Z,42.805,6.029,13.2983,4.59986,2469.643,2021-4-24T16:02:08Z
2021-04-24T14:04:02Z,42.805,6.029,13.2979,4.59986,2469.62,2021-4-24T16:05:11Z
2021-04-24T14:07:05Z,42.805,6.029,13.2983,4.59987,2469.667,2021-4-24T16:08:14Z
2021-04-24T14:10:08Z,42.805,6.029,13.2982,4.59986,2469.643,2021-4-24T16:11:17Z
2021-04-24T14:13:11Z,42.805,6.029,13.2983,4.59986,2469.667,2021-4-24T16:14:20Z
2021-04-24T14:16:14Z,42.805,6.029,13.2979,4.59986,2469.667,2021-4-24T16:17:24Z
2021-04-24T14:19:17Z,42.805,6.029,13.2982,4.59986,2469.667,2021-4-24T16:20:27Z
2021-04-24T14:22:20Z,42.805,6.029,13.2981,4.59987,2469.657,2021-4-24T16:23:30Z
2021-04-24T14:25:24Z,42.805,6.029,13.2983,4.59986,2469.657,2021-4-24T16:26:33Z
2021-04-24T14:28:27Z,42.805,6.029,13.2978,4.59986,2469.657,2021-4-24T16:29:36Z
2021-04-24T14:31:30Z,42.805,6.029,13.2979,4.59988,2469.704,2021-4-24T16:32:39Z
2021-04-24T14:34:33Z,42.805,6.029,13.2980,4.59987,2469.667,2021-4-24T16:35:42Z
2021-04-24T14:37:36Z,42.805,6.029,13.2982,4.59987,2469.657,2021-4-24T16:38:45Z
2021-04-24T14:40:39Z,42.805,6.029,13.2983,4.59986,2469.657,2021-4-24T16:41:49Z
2021-04-24T14:43:42Z,42.805,6.029,13.2981,4.59989,2469.667,2021-4-24T16:44:52Z
2021-04-24T14:46:45Z,42.805,6.029,13.2985,4.59989,2469.69,2021-4-24T16:47:55Z
2021-04-24T14:49:49Z,42.805,6.029,13.2982,4.59988,2469.657,2021-4-24T16:50:58Z
2021-04-24T14:52:52Z,42.805,6.029,13.2982,4.59989,2469.704,2021-4-24T16:54:01Z
2021-04-24T14:55:55Z,42.805,6.029,13.2979,4.59989,2469.667,2021-4-24T16:57:04Z
2021-04-24T14:58:58Z,42.805,6.029,13.2982,4.59988,2469.713,2021-4-24T17:00:07Z
2021-04-24T15:02:01Z,42.805,6.029,13.2982,4.59989,2469.69,2021-4-24T17:03:10Z
2021-04-24T15:05:04Z,42.805,6.029,13.2979,4.59989,2469.69,2021-4-24T17:06:14Z
2021-04-24T15:08:07Z,42.805,6.029,13.2981,4.59989,2469.713,2021-4-24T17:09:17Z
2021-04-24T15:11:10Z,42.805,6.029,13.2982,4.59987,2469.69,2021-4-24T17:12:20Z
2021-04-24T15:14:14Z,42.805,6.029,13.2982,4.59988,2469.713,2021-4-24T17:15:23Z